DW5684 Weather Reports


Display with metric or nautical units.
time (UTC)temp
F
wind
direction
speed
MPH
gust
MPH
rain 1hr
in
rain 24hr
in
rain mn
in
humidity
%
barometer
mb
20260508104834 55 160 1.0 6.0 0.00 0.00 0.00 74 1012.3
20260508104328 54 140 1.0 5.0 0.00 0.00 0.00 75 1012.4
20260508103823 54 188 1.0 5.0 0.00 0.00 0.00 75 1012.3
20260508103318 54 228 0.0 3.0 0.00 0.00 0.00 75 1012.4
20260508102813 54 207 0.0 3.0 0.00 0.00 0.00 75 1012.5
20260508102328 54 195 0.0 3.0 0.00 0.00 0.00 75 1012.5
20260508101823 54 158 0.0 3.0 0.00 0.00 0.00 76 1012.5
20260508101418 53 193 1.0 4.0 0.00 0.00 0.00 76 1012.4
20260508100828 53 170 1.0 4.0 0.00 0.00 0.00 77 1012.5
20260508100326 52 198 0.0 5.0 0.00 0.00 0.00 78 1012.5
20260508095821 52 143 0.0 3.0 0.00 0.00 0.00 79 1012.5
20260508095317 51 195 1.0 3.0 0.00 0.00 0.00 80 1012.6
20260508094830 51 176 0.0 3.0 0.00 0.00 0.00 81 1012.7
20260508094324 51 131 0.0 0.0 0.00 0.00 0.00 81 1012.7
20260508093819 51 141 0.0 0.0 0.00 0.00 0.00 81 1012.7
20260508093314 51 141 0.0 0.0 0.00 0.00 0.00 81 1012.6
20260508092813 50 173 0.0 0.0 0.00 0.00 0.00 82 1012.6
20260508092328 50 165 0.0 0.0 0.00 0.00 0.00 82 1012.6
20260508091823 50 164 0.0 0.0 0.00 0.00 0.00 82 1012.5
20260508091317 50 165 0.0 0.0 0.00 0.00 0.00 82 1012.6
20260508090852 50 176 0.0 0.0 0.00 0.00 0.00 81 1012.6
20260508090326 50 175 0.0 0.0 0.00 0.00 0.00 81 1012.6
20260508085821 50 175 0.0 0.0 0.00 0.00 0.00 81 1012.7
20260508085316 50 176 0.0 0.0 0.00 0.00 0.00 81 1012.8
20260508084814 50 127 0.0 0.0 0.00 0.00 0.00 81 1012.8
20260508084329 51 127 0.0 1.0 0.00 0.00 0.00 80 1012.8
20260508083845 51 186 0.0 1.0 0.00 0.00 0.00 81 1012.8
20260508083318 51 148 0.0 2.0 0.00 0.00 0.00 80 1012.8
20260508082813 51 147 0.0 2.0 0.00 0.00 0.00 80 1012.9
20260508082329 51 166 0.0 0.0 0.00 0.00 0.00 80 1013.0
20260508081824 51 149 0.0 0.0 0.00 0.00 0.00 80 1013.0
20260508081319 51 151 0.0 0.0 0.00 0.00 0.00 79 1013.0
20260508080835 51 167 0.0 2.0 0.00 0.00 0.00 79 1013.0
20260508080313 52 201 0.0 2.0 0.00 0.00 0.00 79 1013.0
20260508075828 52 175 0.0 0.0 0.00 0.00 0.00 78 1013.0
20260508075323 52 161 0.0 3.0 0.00 0.00 0.00 78 1013.1
20260508074818 52 192 0.0 5.0 0.00 0.00 0.00 77 1013.1
20260508074313 52 179 0.0 5.0 0.00 0.00 0.00 77 1013.1
20260508073828 52 188 0.0 5.0 0.00 0.00 0.00 77 1013.2
20260508073322 52 186 1.0 5.0 0.00 0.00 0.00 77 1013.2
20260508072836 52 190 1.0 4.0 0.00 0.00 0.00 78 1013.2
20260508072332 52 217 0.0 5.0 0.00 0.00 0.00 77 1013.3
20260508071827 52 175 2.0 5.0 0.00 0.00 0.00 77 1013.3
20260508071322 52 212 1.0 4.0 0.00 0.00 0.00 77 1013.4
20260508070817 52 191 1.0 3.0 0.00 0.00 0.00 77 1013.5
20260508070352 52 168 1.0 3.0 0.00 0.00 0.00 77 1013.5
20260508065826 53 165 1.0 4.0 0.00 0.00 0.00 77 1013.6
20260508065320 53 161 2.0 4.0 0.00 0.00 0.00 77 1013.6
20260508064835 53 169 0.0 5.0 0.00 0.00 0.00 77 1013.6
20260508064313 53 178 1.0 5.0 0.00 0.00 0.00 77 1013.5
20260508063828 53 161 2.0 4.0 0.00 0.00 0.00 77 1013.6
20260508063323 53 167 1.0 5.0 0.00 0.00 0.00 77 1013.7
20260508062818 53 187 1.0 5.0 0.00 0.00 0.00 77 1013.7
20260508062332 52 225 1.0 3.0 0.00 0.00 0.00 77 1013.8
20260508061826 52 191 0.0 3.0 0.00 0.00 0.00 78 1013.8
20260508061321 52 158 1.0 3.0 0.00 0.00 0.00 78 1013.8
20260508060816 52 183 0.0 0.0 0.00 0.00 0.00 78 1013.8
20260508060315 52 202 0.0 0.0 0.00 0.00 0.00 78 1013.9
20260508055830 52 209 0.0 2.0 0.00 0.00 0.00 78 1014.0
20260508055326 52 198 0.0 2.0 0.00 0.00 0.00 78 1014.0
20260508054840 52 173 0.0 2.0 0.00 0.00 0.00 78 1014.0
20260508054313 52 188 0.0 2.0 0.00 0.00 0.00 78 1014.0
20260508053829 52 174 0.0 0.0 0.00 0.00 0.00 78 1014.1
20260508053324 52 187 0.0 0.0 0.00 0.00 0.00 78 1014.2
20260508052819 53 213 0.0 0.0 0.00 0.00 0.00 77 1014.2
20260508052318 53 193 0.0 0.0 0.00 0.00 0.00 77 1014.2
20260508051814 53 194 0.0 0.0 0.00 0.00 0.00 77 1014.2
20260508051329 53 173 0.0 0.0 0.00 0.00 0.00 76 1014.2
20260508050843 53 165 0.0 0.0 0.00 0.00 0.00 76 1014.3
20260508050317 53 193 0.0 2.0 0.00 0.00 0.00 76 1014.3
20260508045832 53 164 0.0 2.0 0.00 0.00 0.00 76 1014.2
20260508045326 53 165 0.0 2.0 0.00 0.00 0.00 76 1014.3
20260508044820 53 200 0.0 0.0 0.00 0.00 0.00 76 1014.3
20260508044315 54 186 0.0 1.0 0.00 0.00 0.00 75 1014.3
20260508043814 54 149 0.0 3.0 0.00 0.00 0.00 75 1014.4
20260508043309 54 182 0.0 5.0 0.00 0.00 0.00 75 1014.4
20260508042803 54 188 0.0 4.0 0.00 0.00 0.00 75 1014.5
20260508042257 54 174 1.0 4.0 0.00 0.00 0.00 75 1014.5
20260508041832 54 169 1.0 4.0 0.00 0.00 0.00 75 1014.5
20260508041306 54 202 1.0 4.0 0.00 0.00 0.00 75 1014.5
20260508040800 54 193 1.0 3.0 0.00 0.00 0.00 76 1014.6
20260508040335 53 156 1.0 2.0 0.00 0.00 0.00 76 1014.8
20260508035808 54 171 0.0 1.0 0.00 0.00 0.00 76 1014.7
20260508035306 54 194 0.0 3.0 0.00 0.00 0.00 76 1014.8
20260508034800 54 155 1.0 3.0 0.00 0.00 0.00 76 1014.8
20260508034255 54 181 0.0 2.0 0.00 0.00 0.00 76 1014.9
20260508033807 54 185 0.0 2.0 0.00 0.00 0.00 76 1014.9
20260508033322 53 167 0.0 1.0 0.00 0.00 0.00 77 1015.0
20260508032815 53 171 0.0 1.0 0.00 0.00 0.00 77 1015.0
20260508032309 53 186 0.0 1.0 0.00 0.00 0.00 77 1015.0
20260508031804 53 171 0.0 1.0 0.00 0.00 0.00 78 1015.0
20260508031258 53 172 0.0 2.0 0.00 0.00 0.00 79 1015.0
20260508030757 52 158 0.0 2.0 0.00 0.00 0.00 80 1015.0
20260508030331 52 200 0.0 0.0 0.00 0.00 0.00 81 1015.0
20260508025805 52 205 0.0 0.0 0.00 0.00 0.00 81 1014.9
20260508025258 52 205 0.0 0.0 0.00 0.00 0.00 81 1014.9
20260508024812 52 203 0.0 0.0 0.00 0.00 0.00 80 1014.8
20260508024326 53 203 0.0 0.0 0.00 0.00 0.00 79 1014.9
20260508023759 53 203 0.0 0.0 0.00 0.00 0.00 80 1014.9
20260508023313 53 203 0.0 0.0 0.00 0.00 0.00 80 1014.9
20260508022808 53 203 0.0 0.0 0.00 0.00 0.00 78 1014.7
20260508022323 53 203 0.0 0.0 0.00 0.00 0.00 78 1014.6
20260508021802 53 203 0.0 0.0 0.00 0.00 0.00 78 1014.6
20260508021256 53 203 0.0 0.0 0.00 0.00 0.00 78 1014.6
20260508020811 53 203 0.0 0.0 0.00 0.00 0.00 77 1014.5
20260508020306 54 203 0.0 0.0 0.00 0.00 0.00 76 1014.4
20260508015801 55 203 0.0 0.0 0.00 0.00 0.00 75 1014.3
20260508015257 55 203 0.0 0.0 0.00 0.00 0.00 74 1014.3
20260508014833 56 203 0.0 0.0 0.00 0.00 0.00 72 1014.3
20260508014307 57 203 0.0 0.0 0.00 0.00 0.00 71 1014.2
20260508013807 57 203 0.0 0.0 0.00 0.00 0.00 69 1014.2
20260508013301 58 203 0.0 0.0 0.00 0.00 0.00 67 1014.1
20260508012756 58 203 0.0 0.0 0.00 0.00 0.00 66 1014.1
20260508012311 59 210 0.0 1.0 0.00 0.00 0.00 65 1014.0
20260508011806 59 212 0.0 1.0 0.00 0.00 0.00 64 1014.0
20260508011301 60 181 0.0 0.0 0.00 0.00 0.00 64 1014.0
20260508010756 61 181 0.0 0.0 0.00 0.00 0.00 62 1014.0
20260508010255 61 217 0.0 3.0 0.00 0.00 0.00 60 1014.0
20260508005829 61 169 0.0 3.0 0.00 0.00 0.00 60 1014.0
20260508005305 62 216 0.0 2.0 0.00 0.00 0.00 59 1013.9
20260508004757 62 176 0.0 4.0 0.00 0.00 0.00 60 1013.9
20260508004310 63 226 0.0 4.0 0.00 0.00 0.00 59 1013.9
20260508003804 63 210 0.0 3.0 0.00 0.00 0.00 57 1014.0
20260508003259 64 174 2.0 3.0 0.00 0.00 0.00 55 1013.9
20260508002813 64 148 1.0 3.0 0.00 0.00 0.00 56 1013.8
20260508002329 64 178 0.0 5.0 0.00 0.00 0.00 55 1013.8
20260508001801 64 223 2.0 6.0 0.00 0.00 0.00 54 1013.8
20260508001300 65 217 2.0 6.0 0.00 0.00 0.00 54 1013.8
20260508000756 65 221 3.0 5.0 0.00 0.00 0.00 53 1013.8
20260508000312 65 188 1.0 7.0 0.00 0.00 0.00 53 1013.7
20260507235803 66 161 2.0 7.0 0.00 0.00 0.00 52 1013.7
20260507235258 66 219 0.0 2.0 0.00 0.00 0.00 53 1013.7
20260507234813 66 185 0.0 6.0 0.00 0.00 0.00 53 1013.7
20260507234308 66 209 2.0 6.0 0.00 0.00 0.00 51 1013.8
20260507233807 66 57 1.0 6.0 0.00 0.00 0.00 51 1013.9
20260507233301 66 163 1.0 5.0 0.00 0.00 0.00 51 1013.9
20260507232816 66 231 0.0 5.0 0.00 0.00 0.00 52 1013.9
20260507232310 66 221 0.0 6.0 0.00 0.00 0.00 50 1014.0
20260507231805 66 203 1.0 6.0 0.00 0.00 0.00 49 1014.0
20260507231320 66 221 1.0 5.0 0.00 0.00 0.00 51 1014.0
20260507230813 66 294 0.0 5.0 0.00 0.00 0.00 50 1014.0
20260507230309 66 207 1.0 5.0 0.00 0.00 0.00 50 1014.1
20260507225825 67 266 1.0 5.0 0.00 0.00 0.00 49 1014.1
20260507225306 67 213 0.0 7.0 0.00 0.00 0.00 48 1014.2
20260507224758 67 220 2.0 7.0 0.00 0.00 0.00 48 1014.3
20260507224314 67 225 3.0 6.0 0.00 0.00 0.00 48 1014.3
20260507223807 68 227 0.0 5.0 0.00 0.00 0.00 48 1014.4
20260507223302 67 226 2.0 6.0 0.00 0.00 0.00 49 1014.4
20260507222756 68 181 0.0 4.0 0.00 0.00 0.00 50 1014.4
20260507222311 68 214 1.0 7.0 0.00 0.00 0.00 48 1014.5
20260507221806 69 229 3.0 7.0 0.00 0.00 0.00 46 1014.6
20260507221305 69 223 0.0 4.0 0.00 0.00 0.00 47 1014.6
20260507220759 69 285 1.0 4.0 0.00 0.00 0.00 45 1014.7
20260507220335 69 222 0.0 7.0 0.00 0.00 0.00 46 1014.8
20260507215808 69 172 1.0 7.0 0.00 0.00 0.00 47 1014.8
20260507215301 69 219 2.0 6.0 0.00 0.00 0.00 45 1014.7
20260507214757 69 229 3.0 6.0 0.00 0.00 0.00 46 1014.7
20260507214312 69 115 1.0 6.0 0.00 0.00 0.00 46 1014.8
20260507213810 69 304 0.0 6.0 0.00 0.00 0.00 47 1014.9
20260507213302 69 228 2.0 6.0 0.00 0.00 0.00 47 1014.8
20260507212801 69 316 0.0 4.0 0.00 0.00 0.00 46 1014.8
20260507212315 69 217 0.0 6.0 0.00 0.00 0.00 47 1014.9
20260507211329 68 290 0.0 8.0 0.00 0.00 0.00 48 1015.0
20260507210803 69 205 2.0 5.0 0.00 0.00 0.00 45 1015.0
20260507210258 70 218 1.0 5.0 0.00 0.00 0.00 47 1015.0
20260507205812 69 261 1.0 6.0 0.00 0.00 0.00 49 1015.0
20260507205307 69 205 2.0 8.0 0.00 0.00 0.00 47 1015.1
20260507204806 69 156 2.0 8.0 0.00 0.00 0.00 47 1015.2
20260507204321 68 231 1.0 6.0 0.00 0.00 0.00 51 1015.3
20260507203755 68 206 2.0 8.0 0.00 0.00 0.00 47 1015.5
20260507203309 68 212 2.0 8.0 0.00 0.00 0.00 49 1015.5
20260507202804 67 210 1.0 8.0 0.00 0.00 0.00 48 1015.6
20260507202258 67 205 3.0 8.0 0.00 0.00 0.00 49 1015.7
20260507201813 67 198 0.0 8.0 0.00 0.00 0.00 47 1015.9
20260507201308 67 207 3.0 7.0 0.00 0.00 0.00 50 1015.9
20260507200807 67 201 1.0 5.0 0.00 0.00 0.00 46 1016.1
20260507200301 67 204 2.0 5.0 0.00 0.00 0.00 46 1016.1
20260507195753 68 297 1.0 5.0 0.00 0.00 0.00 46 1016.2
20260507195329 68 187 0.0 6.0 0.00 0.00 0.00 49 1016.3
20260507194821 68 250 2.0 6.0 0.00 0.00 0.00 47 1016.3
20260507192314 67 269 2.0 7.0 0.00 0.00 0.00 50 1016.7
20260507191808 67 278 2.0 5.0 0.00 0.00 0.00 50 1016.6
20260507191303 67 284 1.0 6.0 0.00 0.00 0.00 44 1016.6
20260507190757 67 345 1.0 6.0 0.00 0.00 0.00 46 1016.6
20260507190310 67 195 3.0 5.0 0.00 0.00 0.00 47 1016.7
20260507185825 67 294 1.0 9.0 0.00 0.00 0.00 47 1016.7
20260507185305 67 139 3.0 9.0 0.00 0.00 0.00 45 1016.9
20260507184757 67 231 1.0 5.0 0.00 0.00 0.00 46 1016.9
20260507184312 66 135 1.0 5.0 0.00 0.00 0.00 49 1016.9
20260507183827 67 226 2.0 7.0 0.00 0.00 0.00 47 1016.9
20260507183300 68 194 1.0 5.0 0.00 0.00 0.00 48 1016.9
20260507182814 67 217 2.0 8.0 0.00 0.00 0.00 51 1016.9
20260507182309 66 192 2.0 8.0 0.00 0.00 0.00 48 1017.0
20260507181824 67 296 1.0 6.0 0.00 0.00 0.00 49 1017.1
20260507181258 67 210 2.0 6.0 0.00 0.00 0.00 46 1017.1
20260507180757 66 186 3.0 6.0 0.00 0.00 0.00 47 1017.1
20260507180312 66 189 3.0 6.0 0.00 0.00 0.00 47 1017.3
20260507175807 67 108 1.0 4.0 0.00 0.00 0.00 45 1017.4
20260507175306 66 208 1.0 6.0 0.00 0.00 0.00 45 1017.5
20260507174757 65 216 2.0 6.0 0.00 0.00 0.00 47 1017.6
20260507174311 66 185 1.0 3.0 0.00 0.00 0.00 44 1017.7
20260507173827 66 222 1.0 4.0 0.00 0.00 0.00 47 1017.7
20260507173321 66 212 2.0 7.0 0.00 0.00 0.00 44 1018.0
20260507172759 66 229 2.0 5.0 0.00 0.00 0.00 47 1017.9
20260507172313 66 295 2.0 5.0 0.00 0.00 0.00 47 1018.0
20260507171809 65 288 1.0 4.0 0.00 0.00 0.00 49 1018.1
20260507171303 64 219 1.0 4.0 0.00 0.00 0.00 49 1018.2
20260507170757 65 284 1.0 6.0 0.00 0.00 0.00 47 1018.4
20260507170312 65 192 2.0 6.0 0.00 0.00 0.00 46 1018.4
20260507165806 65 162 2.0 6.0 0.00 0.00 0.00 48 1018.5
20260507165301 65 219 1.0 3.0 0.00 0.00 0.00 48 1018.6
20260507164800 64 272 0.0 5.0 0.00 0.00 0.00 46 1018.6
20260507164255 65 282 1.0 6.0 0.00 0.00 0.00 45 1018.8
20260507163829 65 233 1.0 5.0 0.00 0.00 0.00 46 1018.7
20260507163303 65 264 1.0 5.0 0.00 0.00 0.00 44 1018.7
20260507162758 65 141 1.0 4.0 0.00 0.00 0.00 45 1018.7
20260507162311 65 198 0.0 3.0 0.00 0.00 0.00 45 1018.7
20260507161806 64 221 1.0 6.0 0.00 0.00 0.00 48 1018.7
20260507161301 64 223 2.0 6.0 0.00 0.00 0.00 47 1018.8
20260507160757 63 142 3.0 8.0 0.00 0.00 0.00 51 1018.7
20260507160257 63 210 3.0 8.0 0.00 0.00 0.00 46 1018.7
20260507155812 63 152 2.0 6.0 0.00 0.00 0.00 50 1018.7
20260507155306 63 225 3.0 6.0 0.00 0.00 0.00 46 1018.8
20260507154801 62 142 2.0 8.0 0.00 0.00 0.00 47 1018.8
20260507154256 62 206 4.0 8.0 0.00 0.00 0.00 46 1018.8
20260507153810 63 233 3.0 5.0 0.00 0.00 0.00 46 1018.8
20260507153305 63 207 2.0 5.0 0.00 0.00 0.00 48 1018.9
20260507152803 62 212 2.0 5.0 0.00 0.00 0.00 50 1018.9
20260507152258 62 201 2.0 6.0 0.00 0.00 0.00 49 1019.0
20260507151812 62 208 3.0 6.0 0.00 0.00 0.00 47 1019.1
20260507151325 62 210 3.0 5.0 0.00 0.00 0.00 49 1019.1
20260507150759 62 221 1.0 5.0 0.00 0.00 0.00 51 1019.2
20260507150314 61 260 0.0 4.0 0.00 0.00 0.00 48 1019.2
20260507145830 61 292 2.0 4.0 0.00 0.00 0.00 50 1019.2
20260507145306 61 194 2.0 5.0 0.00 0.00 0.00 49 1019.2
20260507144757 61 236 3.0 5.0 0.00 0.00 0.00 47 1019.2
20260507144256 61 214 2.0 4.0 0.00 0.00 0.00 52 1019.3
20260507143811 60 170 1.0 5.0 0.00 0.00 0.00 52 1019.2
20260507143306 60 203 2.0 7.0 0.00 0.00 0.00 51 1019.2
20260507142801 59 195 3.0 8.0 0.00 0.00 0.00 50 1019.2
20260507142256 59 200 3.0 8.0 0.00 0.00 0.00 51 1019.2
20260507141831 59 139 2.0 5.0 0.00 0.00 0.00 57 1019.3
20260507141305 59 167 3.0 6.0 0.00 0.00 0.00 55 1019.4
20260507140801 59 220 2.0 6.0 0.00 0.00 0.00 53 1019.4
20260507140301 59 186 2.0 6.0 0.00 0.00 0.00 58 1019.4
20260507135813 58 170 2.0 9.0 0.00 0.00 0.00 57 1019.4
20260507135328 57 232 2.0 9.0 0.00 0.00 0.00 58 1019.4
20260507134802 58 212 3.0 4.0 0.00 0.00 0.00 55 1019.4
20260507134317 58 197 2.0 4.0 0.00 0.00 0.00 58 1019.5
20260507133811 58 175 2.0 4.0 0.00 0.00 0.00 60 1019.5
20260507133306 57 156 1.0 5.0 0.00 0.00 0.00 59 1019.4
20260507132801 57 183 2.0 5.0 0.00 0.00 0.00 59 1019.4
20260507132256 57 179 1.0 3.0 0.00 0.00 0.00 62 1019.5
20260507131756 56 172 1.0 4.0 0.00 0.00 0.00 63 1019.6
20260507131311 56 188 0.0 4.0 0.00 0.00 0.00 63 1019.6
20260507130806 57 195 0.0 2.0 0.00 0.00 0.00 64 1019.5
20260507130300 57 206 1.0 2.0 0.00 0.00 0.00 62 1019.4
20260507125835 57 192 0.0 1.0 0.00 0.00 0.00 67 1019.4
20260507125309 57 168 0.0 1.0 0.00 0.00 0.00 63 1019.4
20260507124803 56 217 0.0 0.0 0.00 0.00 0.00 68 1019.4
20260507124257 53 221 0.0 0.0 0.00 0.00 0.00 74 1019.4
20260507123755 51 220 0.0 0.0 0.00 0.00 0.00 76 1019.4
20260507123310 49 220 0.0 0.0 0.00 0.00 0.00 80 1019.2
20260507122805 46 188 0.0 0.0 0.00 0.00 0.00 86 1019.2
20260507122321 45 225 0.0 0.0 0.00 0.00 0.00 86 1019.2
20260507121755 44 225 0.0 0.0 0.00 0.00 0.00 86 1019.2
20260507121310 44 225 0.0 0.0 0.00 0.00 0.00 86 1019.2
20260507120805 45 225 0.0 0.0 0.00 0.00 0.00 86 1019.2
20260507120300 45 225 0.0 0.0 0.00 0.00 0.00 86 1019.2
20260507115759 44 225 0.0 0.0 0.00 0.00 0.00 87 1019.1
20260507115314 44 230 0.0 0.0 0.00 0.00 0.00 87 1019.1
20260507114809 44 233 0.0 0.0 0.00 0.00 0.00 88 1018.9
20260507114324 43 245 0.0 0.0 0.00 0.00 0.00 90 1019.0
20260507113757 42 290 0.0 0.0 0.00 0.00 0.00 90 1018.9
20260507113312 42 290 0.0 0.0 0.00 0.00 0.00 90 1019.0
20260507112827 42 290 0.0 0.0 0.00 0.00 0.00 90 1019.1
20260507112322 42 290 0.0 0.0 0.00 0.00 0.00 90 1019.0
20260507111755 42 290 0.0 0.0 0.00 0.00 0.00 90 1019.0
20260507111310 42 290 0.0 0.0 0.00 0.00 0.00 90 1018.8
20260507110804 43 290 0.0 0.0 0.00 0.00 0.00 91 1018.7
20260507110303 43 290 0.0 0.0 0.00 0.00 0.00 91 1018.7
20260507105758 43 290 0.0 0.0 0.00 0.00 0.00 91 1018.6
20260507105312 43 290 0.0 0.0 0.00 0.00 0.00 92 1018.6